TimeCDT,TemperatureF,Dew PointF,Humidity,Sea Level PressureIn,VisibilityMPH,Wind Direction,Wind SpeedMPH,Gust SpeedMPH,PrecipitationIn,Events,Conditions,WindDirDegrees,DateUTC
12:53 AM,44.1,41.0,89,29.86,10.0,WSW,4.6,-,N/A,,Clear,240,2013-11-02 05:53:00
1:53 AM,46.0,42.1,86,29.87,10.0,WSW,6.9,-,N/A,,Mostly Cloudy,240,2013-11-02 06:53:00
2:53 AM,48.9,42.1,77,29.87,10.0,WSW,3.5,-,N/A,,Mostly Cloudy,250,2013-11-02 07:53:00
3:53 AM,46.9,41.0,80,29.88,10.0,WSW,4.6,-,N/A,,Clear,250,2013-11-02 08:53:00
4:53 AM,46.0,39.9,79,29.88,10.0,SW,3.5,-,N/A,,Clear,230,2013-11-02 09:53:00
5:53 AM,41.0,37.9,89,29.90,10.0,SW,4.6,-,N/A,,Clear,230,2013-11-02 10:53:00
6:53 AM,44.1,39.9,85,29.92,10.0,WSW,5.8,-,N/A,,Scattered Clouds,250,2013-11-02 11:53:00
7:53 AM,46.9,42.1,83,29.94,10.0,WSW,5.8,-,N/A,,Overcast,250,2013-11-02 12:53:00
8:53 AM,48.9,43.0,80,29.97,10.0,West,5.8,-,N/A,,Overcast,260,2013-11-02 13:53:00
9:53 AM,53.1,43.0,69,29.99,10.0,NW,9.2,-,N/A,,Mostly Cloudy,310,2013-11-02 14:53:00
10:53 AM,53.1,44.1,71,30.01,10.0,WNW,6.9,-,N/A,,Mostly Cloudy,290,2013-11-02 15:53:00
11:53 AM,55.9,44.1,64,30.03,10.0,NW,9.2,-,N/A,,Mostly Cloudy,310,2013-11-02 16:53:00
12:23 PM,59.0,44.6,59,30.03,10.0,Variable,5.8,-,N/A,,Mostly Cloudy,0,2013-11-02 17:23:00
12:53 PM,57.0,43.0,59,30.02,10.0,NW,11.5,-,N/A,,Mostly Cloudy,310,2013-11-02 17:53:00
1:53 PM,57.0,42.1,57,30.02,10.0,WNW,15.0,19.6,N/A,,Mostly Cloudy,290,2013-11-02 18:53:00
2:53 PM,60.1,41.0,49,30.03,10.0,WNW,12.7,19.6,N/A,,Mostly Cloudy,300,2013-11-02 19:53:00
3:53 PM,57.0,39.9,53,30.04,10.0,WNW,12.7,19.6,N/A,,Clear,300,2013-11-02 20:53:00
4:53 PM,57.0,39.0,51,30.07,10.0,NW,15.0,20.7,N/A,,Scattered Clouds,310,2013-11-02 21:53:00
5:53 PM,52.0,39.0,61,30.10,10.0,NW,4.6,-,N/A,,Clear,320,2013-11-02 22:53:00
6:53 PM,51.1,37.9,61,30.12,10.0,WNW,3.5,-,N/A,,Clear,300,2013-11-02 23:53:00
7:53 PM,48.0,37.9,68,30.15,8.0,Calm,Calm,-,N/A,,Clear,0,2013-11-03 00:53:00
8:53 PM,42.1,37.0,82,30.17,10.0,WSW,3.5,-,N/A,,Clear,240,2013-11-03 01:53:00
9:53 PM,41.0,36.0,82,30.19,10.0,Calm,Calm,-,N/A,,Clear,0,2013-11-03 02:53:00
10:53 PM,39.9,37.0,89,30.20,10.0,Calm,Calm,-,N/A,,Clear,0,2013-11-03 03:53:00
11:53 PM,37.9,35.1,89,30.19,6.0,Calm,Calm,-,N/A,,Clear,0,2013-11-03 04:53:00